Flag for France Weather past 2 weeks in Nancy, France

Now
66 °F

Passing clouds.


Feels Like: 66 °F
Forecast: 62 / 79 °F
Wind: 6 mph from South

Location: Nancy / Ochey

Current Time: Sep 19, 2014 at 2:39:26 AM

Latest Report: Sep 19, 2014 at 2:00 AM


Visibility: N/A

Pressure: 29.89 "Hg

Humidity: 78%

Dew point: 59 °F

Location of NancyLocation

Historic Weather in Nancy — Graph

°F

Nancy temperature yesterday

Maximum temperature yesterday: 77 °F (at 5:00 PM)
Minimum temperature yesterday: 64 °F (at 6:00 AM)
Average temperature yesterday: 69 °F

Past Weeks' High & Low Weather Summary

 TemperatureHumidityPressure
High79 °F (Sep 5, 5:30 PM)100% (Sep 4, 7:30 AM)30.18 "Hg (Sep 4, 7:30 AM)
Low45 °F (Sep 11, 6:00 AM)47% (Sep 17, 5:00 PM)29.83 "Hg (Sep 17, 5:00 PM)
Average63 °F78%30.00 "Hg
* Reported Sep 4 1:00 AM — Sep 19 1:30 AM, Nancy, Weather by CustomWeather, © 2014

Note: Actual official high and low records may vary slightly from our data, if they occured in-between our weather recording intervals... More about our weather records

Advertising

Nancy weather history for previous 24 hours

 ConditionsComfort  
Time TempWeatherWind HumidityBarometerVisibility
1:30 AM
Sep 19
64 °FPassing clouds.6 mph83%29.89 "HgN/A
1:00 AM64 °FClear.6 mph83%29.89 "HgN/A
12:30 AM66 °FMild.6 mph78%29.89 "HgN/A
12:00 AM66 °FClear.6 mph78%29.89 "HgN/A
11:30 PM
Sep 18
66 °FClear.5 mph78%29.89 "HgN/A
11:00 PM66 °FClear.6 mph78%29.89 "HgN/A
10:30 PM66 °FClear.6 mph78%29.89 "HgN/A
10:00 PM66 °FClear.7 mph83%29.89 "HgN/A
9:30 PM68 °FClear.7 mph73%29.89 "HgN/A
9:00 PM68 °FClear.6 mph73%29.89 "HgN/A
8:30 PM70 °FClear.6 mph69%29.86 "HgN/A
8:00 PM70 °FLight rain. Clear.5 mph69%29.86 "HgN/A
7:30 PM72 °FClear.7 mph65%29.86 "HgN/A
7:00 PM72 °FClear.7 mph69%29.86 "HgN/A
6:30 PM73 °FClear.12 mph61%29.86 "HgN/A
6:00 PM73 °FClear.9 mph61%29.86 "HgN/A
5:30 PM75 °FPassing clouds.12 mph57%29.86 "HgN/A
5:00 PM77 °FScattered clouds.13 mph54%29.86 "HgN/A
4:30 PM75 °FPartly sunny.14 mph57%29.86 "HgN/A
4:00 PM75 °FBroken clouds.12 mph57%29.86 "HgN/A
3:30 PM73 °FScattered clouds.8 mph61%29.86 "HgN/A
3:00 PM72 °FClear.10 mph65%29.86 "HgN/A
2:30 PM72 °FClear.12 mph65%29.86 "HgN/A
2:00 PM72 °FClear.10 mph65%29.86 "HgN/A
1:30 PM73 °FClear.12 mph61%29.86 "HgN/A
1:00 PM73 °FClear.15 mph57%29.86 "HgN/A
12:30 PM73 °FClear.18 mph57%29.86 "HgN/A
12:00 PM75 °FPassing clouds.14 mph57%29.86 "HgN/A
11:30 AM73 °FClear.20 mph57%29.86 "HgN/A
11:00 AM73 °FClear.18 mph57%29.86 "HgN/A
10:30 AM73 °FClear.14 mph61%29.86 "HgN/A
10:00 AM70 °FClear.9 mph73%29.86 "HgN/A
9:30 AM68 °FClear.9 mph73%29.86 "HgN/A
9:00 AM68 °FClear.8 mph73%29.86 "HgN/A
8:30 AM66 °FClear.6 mph78%29.86 "HgN/A
8:00 AM64 °FClear.8 mph83%29.86 "HgN/A
7:30 AM64 °FClear.9 mph83%29.83 "HgN/A
7:00 AM64 °FClear.6 mph78%29.83 "HgN/A
6:30 AM64 °FClear.6 mph78%29.83 "HgN/A
6:00 AM64 °FClear.9 mph78%29.83 "HgN/A
5:30 AM66 °FClear.9 mph73%29.83 "HgN/A
5:00 AM66 °FClear.7 mph73%29.83 "HgN/A
4:30 AM66 °FClear.8 mph73%29.83 "HgN/A
4:00 AM66 °FClear.9 mph73%29.86 "HgN/A
3:30 AM66 °FClear.8 mph73%29.86 "HgN/A
3:00 AM66 °FClear.8 mph73%29.86 "HgN/A
2:30 AM66 °FClear.9 mph73%29.86 "HgN/A
2:00 AM66 °FClear.7 mph78%29.86 "HgN/A
Weather by CustomWeather, © 2014

See weather overviewHow to use our weather pages